User: anonymous   Login
Location: Brabourne
(51.1333°N, 1.0000°E)
Time: 16:32:44
(UTC+00:00)
Language:

EP 2 - Orbit

View from above orbital plane
View from above orbital plane
View from above satellite
View from above satellite

Ground track
Ground track

The orbit data is extracted from the following two-line orbital elements,

1 11732U 80019D   18287.15395403 0.00005000  00000-0  34863-3 0    03
2 11732  63.3270  60.6152 0839173  36.9757 323.0243 13.70912341    03
Epoch (UTC): 14 October 2018 03:41:41
Eccentricity: 0.0839173
inclination: 63.3270°
perigee height: 377 km
apogee height: 1615 km
right ascension of ascending node: 60.6152°
argument of perigee: 36.9757°
revolutions per day: 13.70912341
mean anomaly at epoch: 323.0243°
orbit number at epoch: 0

The dashed part of the orbit path shows where the satellite is in the earth's shadow,  

DLR